Location: ????????
(55.5667°N, 37.5833°E)
Time: 07:12:14
(UTC+00:00)

Cosmos 2100 Rocket - Pass Details

Date: 14 April 2026
Orbit: 956 x 999 km, 82.9° (Epoch: 13 May)

Event Time Altitude Azimuth Distance (km) Brightness Sun altitude
Exits shadow 20:47:41 54° 159° (SSE) 1,152 4.0 -24.2°
Maximum altitude 20:49:02 72° 97° (E) 1,010 3.9 -24.2°
Drops below altitude 10° 20:55:12 10° 14° (NNE) 2,714 7.2 -24.4°
Sets 20:57:44 0° 13° (NNE) 3,670 8.1 -24.4°
